This demonstration page uses our WeatherBlox Daily Observations layout. Learn more.

Left ArrowRight Arrow

Hourly Observations for October 7, 2020

Temp ( °F °C ) Dew Point ( °F °C ) Humidity (%) Winds ( mph kmh ) Pressure ( in mb ) Visibility ( mi km ) Precip ( " mm )
12:15 am 00:15 Clear 55 13 50 10 82 82 S 7 11 29.95 1014 10 16 N/A
12:35 am 00:35 Clear 57 14 50 10 77 77 SSW 7 11 29.95 1014 10 16 N/A
12:55 am 00:55 Clear 59 15 50 10 72 72 SW 9 15 29.95 1014 10 16 N/A
1:15 am 01:15 Clear 59 15 50 10 72 72 SW 8 13 29.95 1014 10 16 N/A
1:35 am 01:35 Clear 59 15 50 10 72 72 SSW 9 15 29.94 1014 10 16 N/A
1:55 am 01:55 Clear 57 14 50 10 77 77 SSW 8 13 29.94 1014 10 16 N/A
2:15 am 02:15 Clear 57 14 50 10 77 77 SW 7 11 29.95 1014 10 16 N/A
2:35 am 02:35 Clear 57 14 50 10 77 77 SW 8 13 29.94 1014 10 16 N/A
2:55 am 02:55 Clear 57 14 50 10 77 77 SSW 7 11 29.94 1014 10 16 N/A
3:15 am 03:15 Clear 57 14 50 10 77 77 SW 7 11 29.93 1013 10 16 N/A
3:35 am 03:35 Clear 55 13 50 10 82 82 SSW 7 11 29.93 1014 10 16 N/A
3:55 am 03:55 Clear 55 13 50 10 82 82 SSW 6 9 29.92 1013 10 16 N/A
4:15 am 04:15 Clear 54 12 50 10 88 88 SSW 6 9 29.92 1013 10 16 N/A
4:35 am 04:35 Clear 54 12 52 11 94 94 SSW 6 9 29.92 1013 10 16 N/A
4:55 am 04:55 Clear 54 12 52 11 94 94 SSW 6 9 29.92 1013 10 16 N/A
5:15 am 05:15 Clear 52 11 52 11 100 100 SSW 5 7 29.93 1013 10 16 N/A
5:35 am 05:35 Clear 52 11 50 10 94 94 SSW 6 9 29.93 1013 10 16 N/A
5:55 am 05:55 Clear 52 11 52 11 100 100 SSW 6 9 29.93 1013 10 16 N/A
6:15 am 06:15 Clear 52 11 52 11 100 100 SSW 7 11 29.93 1013 10 16 N/A
6:35 am 06:35 Clear 54 12 52 11 94 94 SSW 6 9 29.92 1013 10 16 N/A
6:55 am 06:55 Clear 52 11 52 11 100 100 SSW 8 13 29.93 1013 10 16 N/A
7:15 am 07:15 Clear 54 12 52 11 94 94 SSW 8 13 29.92 1013 10 16 N/A
7:35 am 07:35 Clear 54 12 54 12 100 100 SSW 9 15 29.92 1013 10 16 N/A
7:55 am 07:55 Sunny 54 12 54 12 100 100 SW 8 13 29.92 1013 10 16 N/A
8:15 am 08:15 Sunny 54 12 54 12 100 100 SW 9 15 29.92 1013 10 16 N/A
8:35 am 08:35 Sunny 55 13 54 12 94 94 SW 9 15 29.93 1014 10 16 N/A
8:55 am 08:55 Sunny 57 14 55 13 94 94 SW 9 15 29.93 1013 10 16 N/A
9:15 am 09:15 Sunny 59 15 55 13 88 88 SW 10 17 29.92 1013 10 16 N/A
9:35 am 09:35 Sunny 61 16 57 14 88 88 SW 10 17 29.93 1014 10 16 N/A
9:55 am 09:55 Sunny 63 17 57 14 83 83 SW 13 20 29.92 1013 10 16 N/A
10:15 am 10:15 Sunny 64 18 57 14 78 78 SW 12 19 29.92 1013 10 16 N/A
10:35 am 10:35 Sunny 66 19 59 15 78 78 WSW 12 19 29.92 1013 10 16 N/A
10:55 am 10:55 Sunny 68 20 59 15 73 73 WSW 13 20 29.91 1013 10 16 N/A
11:15 am 11:15 Sunny 70 21 59 15 69 69 WSW 13 20 29.91 1013 10 16 N/A
11:35 am 11:35 Sunny 72 22 59 15 65 65 SW 15 24 29.90 1013 10 16 N/A
11:55 am 11:55 Sunny 73 23 59 15 61 61 SW 13 20 29.89 1012 10 16 N/A
12:15 pm 12:15 Sunny 73 23 59 15 61 61 SW 15 24 29.89 1012 10 16 N/A
12:35 pm 12:35 Sunny 77 25 59 15 54 54 WSW 14 22 29.89 1012 10 16 N/A
12:55 pm 12:55 Sunny 79 26 59 15 51 51 WSW 17 28 29.89 1012 10 16 N/A
1:15 pm 13:15 Sunny 79 26 59 15 51 51 W 18 30 29.90 1013 10 16 N/A
1:35 pm 13:35 Sunny 79 26 59 15 51 51 W 18 30 29.90 1013 10 16 N/A
1:55 pm 13:55 Sunny 79 26 59 15 51 51 W 15 24 29.90 1013 10 16 N/A
2:15 pm 14:15 Sunny 81 27 59 15 48 48 WNW 15 24 29.90 1012 10 16 N/A
2:35 pm 14:35 Sunny 81 27 61 16 51 51 WNW 16 26 29.89 1012 10 16 N/A
2:55 pm 14:55 Sunny 81 27 59 15 48 48 W 16 26 29.89 1012 10 16 N/A
3:15 pm 15:15 Sunny 82 28 59 15 45 45 WNW 15 24 29.87 1012 10 16 N/A
3:35 pm 15:35 Sunny 82 28 59 15 45 45 WNW 17 28 29.87 1012 10 16 N/A
3:55 pm 15:55 Sunny 81 27 57 14 45 45 W 16 26 29.88 1012 10 16 N/A
4:15 pm 16:15 Sunny 81 27 57 14 45 45 W 17 28 29.88 1012 10 16 N/A
4:35 pm 16:35 Sunny 81 27 57 14 45 45 WNW 15 24 29.89 1012 10 16 N/A
4:55 pm 16:55 Sunny 82 28 57 14 42 42 NW 8 13 29.88 1012 10 16 N/A
5:15 pm 17:15 Sunny 81 27 55 13 42 42 WNW 10 17 29.89 1012 10 16 N/A
5:35 pm 17:35 Sunny 81 27 54 12 39 39 WNW 12 19 29.89 1012 10 16 N/A
5:55 pm 17:55 Sunny 81 27 54 12 39 39 W 14 22 29.89 1012 10 16 N/A
6:15 pm 18:15 Sunny 79 26 54 12 42 42 WNW 12 19 29.90 1013 10 16 N/A
6:35 pm 18:35 Sunny 79 26 52 11 39 39 WNW 9 15 29.91 1013 10 16 N/A
6:55 pm 18:55 Sunny 77 25 52 11 42 42 WNW 10 17 29.92 1013 10 16 N/A
7:15 pm 19:15 Sunny 73 23 52 11 47 47 WNW 7 11 29.93 1014 10 16 N/A
7:35 pm 19:35 Clear 72 22 50 10 47 47 WNW 5 7 29.94 1014 10 16 N/A
7:55 pm 19:55 Clear 72 22 50 10 47 47 NW 5 7 29.95 1014 10 16 N/A
8:15 pm 20:15 Clear 70 21 50 10 50 50 NW 5 7 29.97 1015 10 16 N/A
8:35 pm 20:35 Clear 68 20 48 9 49 49 NW 6 9 29.98 1015 10 16 N/A
8:55 pm 20:55 Clear 64 18 48 9 56 56 N 9 15 29.99 1016 10 16 N/A
9:15 pm 21:15 Clear 63 17 48 9 59 59 N 8 13 30.00 1016 10 16 N/A
9:35 pm 21:35 Clear 61 16 48 9 63 63 N 6 9 30.01 1016 10 16 N/A
9:55 pm 21:55 Clear 59 15 48 9 68 68 NNE 5 7 30.02 1017 10 16 N/A
10:15 pm 22:15 Clear 59 15 48 9 68 68 NNE 6 9 30.02 1017 10 16 N/A
10:35 pm 22:35 Clear 54 12 48 9 82 82 NNE 5 7 30.04 1017 10 16 N/A
10:55 pm 22:55 Clear 52 11 48 9 88 88 NNE 3 6 30.06 1018 10 16 N/A
11:15 pm 23:15 Clear 50 10 46 8 88 88 NNE 3 6 30.06 1018 10 16 N/A
11:35 pm 23:35 Clear 50 10 46 8 88 88 N N/A 30.07 1018 10 16 N/A
11:55 pm 23:55 Clear 50 10 46 8 88 88 N N/A 30.07 1018 10 16 N/A

Powered by AerisWeather